[[{"header":{"parameterUnit":"m.s-1","parameterCategory":1,"la1":30.2991,"la2":30.254,"lo1":-89.0895,"lo2":-89.0444,"dy":0.0017,"dx":0.0017,"nx":28,"ny":28,"refTime":"2023-07-26T09:00:00:Z","depth":0,"parameterNumber":2,"parameterNumberName":"U-component_of_WINDS"},"data":[0,0,0,0,0,0,0,0,0,0,0,0,0,0,0,0,0,0,0,0,0,0,0,0,0,0,0,0,0,0,0,0,0,0,0,0,0,0,0,0,0,0,0,0,0,0,0,0,0,0,0,0,0,0,0,0,0,0,-0.2364,-0.2365,0,-0.2494,-0.2495,-0.2497,-0.2611,-0.2613,-0.2614,-0.2615,-0.2746,-0.2748,-0.275,0,0,0,0,0,0,0,0,0,0,0,0,0,-0.2213,-0.2216,-0.2363,-0.2365,-0.2367,-0.2493,-0.2495,-0.2497,-0.2611,-0.2613,-0.2614,-0.2616,-0.2745,-0.2747,-0.275,0,0,0,0,0,0,0,0,0,0,0,0,0,-0.2304,-0.2216,-0.2363,-0.2439,-0.2447,-0.2493,-0.2495,-0.2497,-0.2611,-0.2613,-0.2615,-0.2617,-0.2744,-0.2747,-0.275,-0.2731,0,0,-0.2761,-0.2762,0,0,0,0,0,0,0,0,-0.2299,-0.231,-0.2426,-0.2434,-0.2443,-0.2538,-0.249,-0.2576,-0.261,-0.2548,-0.2615,-0.2618,-0.2675,-0.2684,-0.2704,-0.2737,-0.2743,-0.2761,-0.2763,-0.2764,-0.2765,0,0,0,0,0,0,0,-0.2293,-0.2305,-0.2415,-0.2428,-0.2438,-0.2466,-0.2482,-0.2507,-0.2599,-0.2554,-0.2563,-0.2577,-0.268,-0.27,-0.2708,-0.2745,-0.2761,-0.2764,-0.2766,-0.2767,-0.2772,-0.277,0,0,0,0,0,0,-0.2275,-0.2299,-0.2411,-0.2419,-0.2375,-0.2467,-0.2484,-0.2506,-0.2599,-0.2615,-0.2575,-0.2581,-0.2694,-0.2704,-0.2713,-0.2698,-0.2764,-0.2768,-0.2769,-0.2774,-0.2772,-0.2769,0,0,0,0,0,0,-0.2271,-0.2284,-0.2406,-0.2361,-0.2379,-0.2468,-0.2491,-0.2507,-0.2528,-0.2615,-0.2631,-0.2579,-0.2696,-0.2708,-0.2727,-0.2704,-0.2769,-0.2772,-0.2776,-0.2773,-0.2771,-0.2667,0,0,0,0,0,0,-0.2266,-0.2282,-0.2275,-0.236,-0.2381,-0.2417,-0.249,-0.2508,-0.2534,-0.2544,-0.2623,-0.2638,-0.2698,-0.2721,-0.273,-0.271,-0.2775,-0.2778,-0.2775,-0.2771,-0.2673,-0.2661,-0.2651,0,0,0,0,0,-0.2261,-0.2239,-0.2274,-0.2287,-0.2375,-0.2415,-0.2427,-0.2498,-0.2531,-0.2526,-0.2582,-0.2635,-0.2705,-0.2722,-0.2733,-0.2714,-0.278,-0.2776,-0.2772,-0.2678,-0.2664,-0.2651,0,0,0,0,0,0,-0.2147,-0.2252,-0.2291,-0.2297,-0.2347,-0.2435,-0.2429,-0.248,-0.252,-0.2527,-0.2612,-0.2629,-0.2639,-0.2678,-0.2695,-0.2701,-0.275,-0.2748,-0.2675,-0.2662,-0.2651,-0.2642,-0.2778,0,0,0,0,0,-0.2123,-0.2148,-0.2238,-0.2235,-0.2258,-0.2339,-0.2359,-0.241,-0.2464,-0.2485,-0.2543,-0.2593,-0.2627,-0.2647,-0.2682,-0.268,-0.2699,-0.2672,-0.2661,-0.2652,-0.2649,-0.2653,-0.2642,-0.2756,-0.2756,-0.2756,0,0,-0.2073,-0.2134,-0.2144,-0.2214,-0.2258,-0.2282,-0.2356,-0.2377,-0.2396,-0.2488,-0.251,-0.2554,-0.2616,-0.2624,-0.2631,-0.2657,-0.2622,-0.2646,-0.2638,-0.264,-0.2647,-0.2636,-0.2627,-0.2753,-0.2753,-0.2754,0,0,-0.1995,-0.2043,-0.2047,-0.209,-0.2157,-0.2212,-0.2213,-0.2294,-0.2327,-0.2351,-0.2421,-0.2444,-0.25,-0.2542,-0.257,-0.2511,-0.2563,-0.252,-0.2463,-0.2466,-0.2457,-0.2449,-0.243,-0.2421,-0.2517,-0.2517,-0.2517,0,-0.1924,-0.1964,-0.2042,-0.206,-0.209,-0.2176,-0.2181,-0.2219,-0.2293,-0.2311,-0.2341,-0.2415,-0.2462,-0.2483,-0.2468,-0.2488,-0.2492,-0.2511,-0.2452,-0.2445,-0.244,-0.2422,-0.2414,-0.2511,-0.2512,-0.2513,-0.2513,0,-0.1875,-0.1901,-0.1896,-0.1968,-0.1997,-0.2008,-0.2088,-0.2107,-0.2156,-0.2208,-0.2232,-0.2292,-0.2343,-0.2351,-0.2398,-0.2379,-0.2394,-0.2436,-0.2487,-0.2422,-0.2407,-0.24,-0.2504,-0.2506,-0.2507,-0.2509,0,0,-0.1726,-0.1844,-0.1841,-0.1876,-0.1957,-0.1979,-0.1995,-0.2046,-0.2062,-0.2111,-0.2127,-0.2174,-0.2215,-0.2247,-0.2299,-0.2302,-0.2253,-0.2344,-0.2347,-0.2326,-0.2238,-0.2206,-0.2197,-0.2288,-0.2287,-0.2286,-0.2234,0,-0.1662,-0.1697,-0.1769,-0.1781,-0.1807,-0.1891,-0.1906,-0.1957,-0.2006,-0.2036,-0.2091,-0.2123,-0.2174,-0.2194,-0.22,-0.2257,-0.2237,-0.2262,-0.2304,-0.2305,-0.2286,-0.2189,-0.2154,-0.2102,-0.2228,-0.2227,-0.2226,0,-0.1591,-0.1638,-0.1653,-0.1735,-0.1749,-0.1761,-0.1815,-0.1842,-0.1903,-0.1939,-0.1976,-0.2035,-0.2057,-0.2104,-0.2136,-0.2152,-0.2174,-0.2205,-0.2205,-0.2211,-0.2261,-0.2193,-0.2086,-0.2078,-0.2217,-0.2218,-0.2219,0,-0.1483,-0.1549,-0.1568,-0.1595,-0.1691,-0.1698,-0.1738,-0.1801,-0.1828,-0.1875,-0.1894,-0.1942,-0.1968,-0.2005,-0.2075,-0.2102,-0.21,-0.2152,-0.2131,-0.2129,-0.2126,-0.2125,-0.2022,-0.2139,-0.2139,-0.2139,-0.2139,0,-0.1404,-0.141,-0.1521,-0.1532,-0.1542,-0.1625,-0.1633,-0.1681,-0.1737,-0.1759,-0.1834,-0.1853,-0.1945,-0.1975,-0.2031,-0.205,-0.2061,-0.2091,-0.2106,-0.2084,-0.2081,-0.21,-0.2105,-0.2137,-0.2138,-0.2138,-0.2138,0,-0.1285,-0.1359,-0.1385,-0.1476,-0.1499,-0.1502,-0.1579,-0.1594,-0.1649,-0.1676,-0.1687,-0.1773,-0.1813,-0.1887,-0.1947,-0.1984,-0.1992,-0.2017,-0.1972,-0.1981,-0.1956,-0.1957,-0.1861,-0.1853,-0.1974,-0.1972,-0.1971,0,-0.123,-0.1237,-0.1329,-0.135,-0.1388,-0.1421,-0.145,-0.1532,-0.1559,-0.1631,-0.1636,-0.1682,-0.1724,-0.1783,-0.1851,-0.1897,-0.1925,-0.1888,-0.1932,-0.1911,-0.1925,-0.1924,-0.1926,-0.1877,-0.1876,-0.1874,-0.1873,0,-0.1124,-0.1162,-0.12,-0.1253,-0.1286,-0.1331,-0.1379,-0.1392,-0.1486,-0.1512,-0.1555,-0.1587,-0.165,-0.1694,-0.1752,-0.1793,-0.1849,-0.1859,-0.1857,-0.1835,-0.1809,-0.1824,-0.1945,-0.186,-0.1862,-0.1863,-0.1863,-0.1864,-0.1036,-0.1048,-0.1115,-0.1157,-0.1203,-0.1247,-0.1266,-0.1324,-0.1362,-0.142,-0.1466,-0.1505,-0.1569,-0.1652,-0.169,-0.1722,-0.1748,-0.1744,-0.1744,-0.1742,-0.1734,-0.1804,-0.1733,-0.1733,-0.1734,-0.1734,-0.1734,0,-0.0936,-0.0984,-0.1022,-0.1089,-0.1122,-0.1173,-0.1231,-0.1255,-0.1288,-0.1343,-0.1383,-0.1433,-0.1478,-0.155,-0.16,-0.1612,-0.1639,-0.1623,-0.1623,-0.1632,-0.1707,-0.1704,-0.16,-0.16,-0.16,-0.16,-0.16,-0.16,-0.0887,-0.091,-0.0955,-0.1002,-0.105,-0.109,-0.1119,-0.1161,-0.1206,-0.1258,-0.1296,-0.1344,-0.1406,-0.1462,-0.1506,-0.1526,-0.1541,-0.1517,-0.1545,-0.1614,-0.1626,-0.1638,-0.1636,-0.152,-0.1519,-0.1468,-0.1467,-0.1467]},{"header":{"parameterUnit":"m.s-1","parameterCategory":1,"la1":30.2991,"la2":30.254,"lo1":-89.0895,"lo2":-89.0444,"dy":0.0017,"dx":0.0017,"nx":28,"ny":28,"refTime":"2023-07-26T09:00:00:Z","depth":0,"parameterNumber":3,"parameterNumberName":"V-component_of_WINDS"},"data":[0,0,0,0,0,0,0,0,0,0,0,0,0,0,0,0,0,0,0,0,0,0,0,0,0,0,0,0,0,0,0,0,0,0,0,0,0,0,0,0,0,0,0,0,0,0,0,0,0,0,0,0,0,0,0,0,0,0,0.8761,0.8761,0,0.8759,0.8759,0.8759,0.8731,0.873,0.873,0.8729,0.8727,0.8728,0.8728,0,0,0,0,0,0,0,0,0,0,0,0,0,0.8738,0.8739,0.8761,0.8761,0.8761,0.8759,0.8759,0.8759,0.8731,0.873,0.873,0.8729,0.8727,0.8728,0.8728,0,0,0,0,0,0,0,0,0,0,0,0,0,0.8744,0.8739,0.8761,0.8746,0.8745,0.8759,0.8759,0.8759,0.8732,0.873,0.8729,0.8728,0.8727,0.8728,0.8729,0.8756,0,0,0.8731,0.8732,0,0,0,0,0,0,0,0,0.8743,0.8744,0.8749,0.8747,0.8746,0.8744,0.8751,0.8758,0.8732,0.8737,0.8729,0.8728,0.8734,0.8734,0.8736,0.8756,0.8756,0.8731,0.8732,0.8732,0.8733,0,0,0,0,0,0,0,0.8743,0.8744,0.876,0.8749,0.8747,0.874,0.874,0.8752,0.8741,0.8736,0.8734,0.8734,0.8733,0.8735,0.8736,0.8756,0.8731,0.8732,0.8733,0.8733,0.8797,0.8798,0,0,0,0,0,0,0.8745,0.8744,0.876,0.876,0.8742,0.8741,0.8741,0.8746,0.8741,0.8739,0.8735,0.8733,0.8734,0.8735,0.8736,0.8767,0.8732,0.8733,0.8734,0.8796,0.8797,0.8799,0,0,0,0,0,0,0.8744,0.8746,0.876,0.8752,0.8753,0.8743,0.8749,0.8746,0.8749,0.874,0.8738,0.874,0.8733,0.8734,0.8751,0.8766,0.8734,0.8735,0.8795,0.8796,0.8798,0.8829,0,0,0,0,0,0,0.8744,0.8746,0.8757,0.8752,0.8753,0.8776,0.875,0.8747,0.8751,0.8748,0.8744,0.8742,0.8733,0.875,0.8752,0.8767,0.8735,0.8793,0.8795,0.8798,0.8827,0.8832,0.8836,0,0,0,0,0,0.8743,0.8765,0.8757,0.8759,0.8766,0.8776,0.8777,0.8766,0.8752,0.8762,0.8757,0.8743,0.8765,0.8752,0.8754,0.8769,0.8792,0.8795,0.8797,0.8825,0.8831,0.8836,0,0,0,0,0,0,0.8772,0.8765,0.8755,0.8777,0.8778,0.8772,0.8784,0.8773,0.8777,0.8774,0.8759,0.8759,0.8778,0.8775,0.8761,0.8795,0.8776,0.8779,0.8796,0.8802,0.8806,0.8806,0.8736,0,0,0,0,0,0.8781,0.879,0.8783,0.8803,0.8804,0.8794,0.8798,0.8789,0.8789,0.8789,0.8785,0.8785,0.8792,0.8797,0.8803,0.8827,0.8825,0.8839,0.8843,0.8847,0.885,0.8861,0.8867,0.8807,0.8807,0.8807,0,0,0.8799,0.8796,0.8803,0.8809,0.8808,0.8818,0.8794,0.8806,0.8812,0.8791,0.8806,0.8803,0.8803,0.8823,0.8831,0.8821,0.8866,0.885,0.8854,0.8854,0.8865,0.887,0.8875,0.8809,0.8809,0.8808,0,0,0.8837,0.8836,0.8852,0.8852,0.8852,0.8845,0.8849,0.8845,0.8843,0.8858,0.8842,0.885,0.8862,0.8862,0.8864,0.8903,0.889,0.8905,0.8929,0.8941,0.8946,0.895,0.8963,0.8968,0.8908,0.8908,0.8908,0,0.8859,0.8874,0.8862,0.8874,0.8877,0.8858,0.8874,0.8875,0.8876,0.8879,0.8868,0.8883,0.8881,0.8901,0.891,0.8913,0.8916,0.8905,0.8946,0.895,0.8954,0.8966,0.8971,0.891,0.891,0.891,0.8909,0,0.8901,0.8911,0.8924,0.8926,0.893,0.8945,0.8935,0.8941,0.8932,0.8927,0.8942,0.894,0.8945,0.8949,0.894,0.8968,0.8961,0.8949,0.8928,0.8961,0.8972,0.8977,0.8913,0.8912,0.8911,0.8911,0,0,0.8955,0.8952,0.8956,0.8957,0.8956,0.8963,0.8976,0.8981,0.8986,0.8989,0.8999,0.901,0.8998,0.9,0.8992,0.9002,0.9032,0.8988,0.8988,0.8995,0.9061,0.907,0.9075,0.9024,0.9025,0.9026,0.9061,0,0.8991,0.9014,0.9004,0.9027,0.9036,0.9019,0.9031,0.9031,0.9027,0.9033,0.9029,0.9036,0.9021,0.9022,0.9032,0.9026,0.9045,0.9024,0.9033,0.9033,0.9032,0.9081,0.9091,0.9124,0.9065,0.9066,0.9066,0,0.9036,0.904,0.9064,0.9061,0.9064,0.9075,0.9078,0.9086,0.9086,0.9082,0.9084,0.9074,0.9086,0.9067,0.9084,0.907,0.9074,0.9072,0.9073,0.9072,0.9051,0.9081,0.9134,0.9139,0.9073,0.9073,0.9072,0,0.9072,0.9083,0.9099,0.91,0.9097,0.9105,0.9104,0.9103,0.9107,0.9111,0.9113,0.9118,0.9121,0.9125,0.9115,0.9103,0.9133,0.9114,0.913,0.913,0.9136,0.9135,0.9189,0.914,0.914,0.914,0.914,0,0.9112,0.9127,0.9115,0.9125,0.9141,0.913,0.9147,0.9144,0.9144,0.9152,0.9139,0.9147,0.9135,0.9142,0.9135,0.915,0.9151,0.9148,0.9146,0.9148,0.9149,0.9149,0.9146,0.9141,0.9141,0.9141,0.9141,0,0.9154,0.9147,0.9163,0.9159,0.9159,0.9171,0.9168,0.9176,0.9172,0.9183,0.9185,0.9177,0.9185,0.9176,0.9183,0.9179,0.9198,0.9193,0.9198,0.9196,0.9212,0.921,0.9267,0.9274,0.9222,0.9222,0.9223,0,0.9179,0.919,0.9188,0.9193,0.9193,0.9201,0.9205,0.9195,0.92,0.9201,0.9209,0.9216,0.9221,0.9234,0.9229,0.9234,0.9229,0.9248,0.9229,0.9232,0.9227,0.9226,0.9227,0.9251,0.9252,0.9253,0.9253,0,0.9224,0.9221,0.9227,0.9232,0.9237,0.924,0.9243,0.9248,0.9237,0.9243,0.9251,0.9255,0.9262,0.9269,0.9273,0.9272,0.9261,0.9259,0.9263,0.9265,0.9267,0.9265,0.9207,0.9258,0.9257,0.9257,0.9257,0.9256,0.9258,0.9267,0.9267,0.9274,0.9275,0.9278,0.9286,0.9283,0.9289,0.9294,0.9288,0.9298,0.9298,0.9302,0.9303,0.931,0.9301,0.9307,0.9308,0.931,0.9311,0.9267,0.9311,0.9311,0.931,0.931,0.931,0,0.9301,0.9301,0.9308,0.9312,0.9318,0.9308,0.931,0.9315,0.9324,0.9325,0.933,0.934,0.9346,0.9342,0.9348,0.9354,0.9349,0.9356,0.9354,0.9354,0.9319,0.9315,0.936,0.936,0.936,0.936,0.936,0.936,0.9325,0.9339,0.9336,0.9351,0.935,0.936,0.9362,0.9364,0.9365,0.9376,0.9381,0.9379,0.9378,0.9383,0.9389,0.9388,0.939,0.9398,0.9395,0.9362,0.9357,0.9352,0.9348,0.9399,0.9399,0.9429,0.9429,0.9429]}]]